Time,TemperatureF,DewpointF,PressureIn,WindDirection,WindDirectionDegrees,WindSpeedMPH,WindSpeedGustMPH,Humidity,HourlyPrecipIn,Conditions,Clouds,dailyrainin,SoftwareType,DateUTC
2013-08-09 00:01:00,68.9,66.8,30.07,NNE,22,0.0,0.0,93,0.00,CLR,,0.00,WeatherDisplay:10.37,2013-08-09 04:01:00,
2013-08-09 00:02:00,68.9,66.8,30.06,NNE,22,0.0,0.0,93,0.00,CLR,,0.00,WeatherDisplay:10.37,2013-08-09 04:02:00,
2013-08-09 00:07:00,68.9,66.8,30.06,NNE,22,0.0,0.0,93,0.00,CLR,,0.00,WeatherDisplay:10.37,2013-08-09 04:07:00,
2013-08-09 00:12:00,68.9,66.8,30.06,NNE,22,0.0,0.0,93,0.00,CLR,,0.00,WeatherDisplay:10.37,2013-08-09 04:12:00,
2013-08-09 00:17:00,68.9,66.8,30.06,NNE,22,0.0,0.0,93,0.00,CLR,,0.00,WeatherDisplay:10.37,2013-08-09 04:17:00,
2013-08-09 00:22:00,68.7,66.6,30.06,NNE,22,0.0,0.0,93,0.00,CLR,,0.00,WeatherDisplay:10.37,2013-08-09 04:22:00,
2013-08-09 00:27:00,68.7,66.6,30.06,NNE,22,0.0,0.0,93,0.00,CLR,,0.00,WeatherDisplay:10.37,2013-08-09 04:27:00,
2013-08-09 00:32:00,68.7,66.6,30.06,NNE,22,0.0,0.0,93,0.00,CLR,,0.00,WeatherDisplay:10.37,2013-08-09 04:32:00,
2013-08-09 00:37:00,68.7,66.6,30.06,NNE,22,0.0,0.0,93,0.00,CLR,,0.00,WeatherDisplay:10.37,2013-08-09 04:37:00,
2013-08-09 00:42:00,68.7,66.6,30.06,NNE,22,0.0,0.0,93,0.00,CLR,,0.00,WeatherDisplay:10.37,2013-08-09 04:42:00,
2013-08-09 00:47:00,68.7,66.6,30.06,NNE,22,0.0,0.0,93,0.00,CLR,,0.00,WeatherDisplay:10.37,2013-08-09 04:47:00,
2013-08-09 00:52:00,68.7,66.6,30.06,NNE,22,0.0,0.0,93,0.00,CLR,,0.00,WeatherDisplay:10.37,2013-08-09 04:52:00,
2013-08-09 00:57:00,68.7,66.6,30.06,NNE,22,0.0,0.0,93,0.00,CLR,,0.00,WeatherDisplay:10.37,2013-08-09 04:57:00,
2013-08-09 01:02:00,68.7,66.6,30.06,NNE,22,0.0,0.0,93,0.00,CLR,,0.00,WeatherDisplay:10.37,2013-08-09 05:02:00,
2013-08-09 01:07:00,68.7,66.6,30.06,NNE,22,0.0,0.0,93,0.00,CLR,,0.00,WeatherDisplay:10.37,2013-08-09 05:07:00,
2013-08-09 01:12:00,68.7,66.6,30.06,NNE,22,0.0,0.0,93,0.00,CLR,,0.00,WeatherDisplay:10.37,2013-08-09 05:12:00,
2013-08-09 01:17:00,68.7,66.6,30.06,NNE,22,0.0,0.0,93,0.00,CLR,,0.00,WeatherDisplay:10.37,2013-08-09 05:17:00,
2013-08-09 01:22:00,68.7,66.6,30.05,NNE,22,0.0,0.0,93,0.00,CLR,,0.00,WeatherDisplay:10.37,2013-08-09 05:22:00,
2013-08-09 01:27:00,68.7,66.6,30.05,NNE,22,0.0,0.0,93,0.00,CLR,,0.00,WeatherDisplay:10.37,2013-08-09 05:27:00,
2013-08-09 01:32:00,68.5,66.4,30.05,NNE,22,0.0,0.0,93,0.00,CLR,,0.00,WeatherDisplay:10.37,2013-08-09 05:32:00,
2013-08-09 01:37:00,68.5,66.4,30.05,NNE,22,0.0,0.0,93,0.00,CLR,,0.00,WeatherDisplay:10.37,2013-08-09 05:37:00,
2013-08-09 01:42:00,68.5,66.4,30.05,NNE,22,0.0,0.0,93,0.00,CLR,,0.00,WeatherDisplay:10.37,2013-08-09 05:42:00,
2013-08-09 01:47:00,68.5,66.4,30.05,NNE,22,0.0,0.0,93,0.00,CLR,,0.00,WeatherDisplay:10.37,2013-08-09 05:47:00,
2013-08-09 01:52:00,68.5,66.4,30.05,NNE,22,0.0,0.0,93,0.00,CLR,,0.00,WeatherDisplay:10.37,2013-08-09 05:52:00,
2013-08-09 01:57:00,68.5,66.4,30.05,NNE,22,0.0,0.0,93,0.00,CLR,,0.00,WeatherDisplay:10.37,2013-08-09 05:57:00,
2013-08-09 02:02:00,68.5,66.4,30.05,NNE,22,0.0,0.0,93,0.00,CLR,,0.00,WeatherDisplay:10.37,2013-08-09 06:02:00,
2013-08-09 02:07:00,68.5,66.4,30.05,NNE,22,0.0,0.0,93,0.00,CLR,,0.00,WeatherDisplay:10.37,2013-08-09 06:07:00,
2013-08-09 02:13:00,68.7,66.6,30.05,NNE,22,0.0,0.0,93,0.00,CLR,,0.00,WeatherDisplay:10.37,2013-08-09 06:13:00,
2013-08-09 02:18:00,68.7,66.6,30.05,NNE,22,0.0,0.0,93,0.00,CLR,,0.00,WeatherDisplay:10.37,2013-08-09 06:18:00,
2013-08-09 02:23:00,68.7,66.6,30.05,NNE,22,0.0,0.0,93,0.00,CLR,,0.00,WeatherDisplay:10.37,2013-08-09 06:23:00,
2013-08-09 02:28:00,68.7,66.6,30.05,NNE,22,0.0,0.0,93,0.00,CLR,,0.00,WeatherDisplay:10.37,2013-08-09 06:28:00,
2013-08-09 02:33:00,68.7,66.6,30.05,NNE,22,0.0,0.0,93,0.00,CLR,,0.00,WeatherDisplay:10.37,2013-08-09 06:33:00,
2013-08-09 02:38:00,68.5,66.4,30.05,NNE,22,0.0,0.0,93,0.00,CLR,,0.00,WeatherDisplay:10.37,2013-08-09 06:38:00,
2013-08-09 02:43:00,68.5,66.4,30.05,NNE,22,0.0,0.0,93,0.00,CLR,,0.00,WeatherDisplay:10.37,2013-08-09 06:43:00,
2013-08-09 02:48:00,68.7,66.6,30.05,NNE,22,0.0,0.0,93,0.00,CLR,,0.00,WeatherDisplay:10.37,2013-08-09 06:48:00,
2013-08-09 02:53:00,68.7,66.6,30.05,NNE,22,0.0,0.0,93,0.00,CLR,,0.00,WeatherDisplay:10.37,2013-08-09 06:53:00,
2013-08-09 02:58:00,68.5,66.4,30.05,NNE,22,0.0,0.0,93,0.00,CLR,,0.00,WeatherDisplay:10.37,2013-08-09 06:58:00,
2013-08-09 03:03:00,68.5,66.4,30.05,NNE,22,0.0,0.0,93,0.00,CLR,,0.00,WeatherDisplay:10.37,2013-08-09 07:03:00,
2013-08-09 03:08:00,68.5,66.4,30.05,NNE,22,0.0,0.0,93,0.00,CLR,,0.00,WeatherDisplay:10.37,2013-08-09 07:08:00,
2013-08-09 03:13:00,68.2,66.1,30.05,NNE,22,0.0,0.0,93,0.00,CLR,,0.00,WeatherDisplay:10.37,2013-08-09 07:13:00,
2013-08-09 03:18:00,68.2,66.1,30.05,NNE,22,0.0,0.0,93,0.00,CLR,,0.00,WeatherDisplay:10.37,2013-08-09 07:18:00,
2013-08-09 03:23:00,67.8,65.7,30.05,NNE,22,0.0,0.0,93,0.00,CLR,,0.00,WeatherDisplay:10.37,2013-08-09 07:23:00,
2013-08-09 03:28:00,67.8,65.7,30.05,NNE,22,0.0,0.0,93,0.00,CLR,,0.00,WeatherDisplay:10.37,2013-08-09 07:28:00,
2013-08-09 03:33:00,67.6,65.5,30.05,NNE,22,0.0,0.0,93,0.00,CLR,,0.00,WeatherDisplay:10.37,2013-08-09 07:33:00,
2013-08-09 03:38:00,67.6,65.5,30.05,NNE,22,0.0,0.0,93,0.00,CLR,,0.00,WeatherDisplay:10.37,2013-08-09 07:38:00,
2013-08-09 03:43:00,67.6,65.5,30.04,NNE,22,0.0,0.0,93,0.00,CLR,,0.00,WeatherDisplay:10.37,2013-08-09 07:43:00,
2013-08-09 03:48:00,67.6,65.5,30.05,NNE,22,0.0,0.0,93,0.00,CLR,,0.00,WeatherDisplay:10.37,2013-08-09 07:48:00,
2013-08-09 03:53:00,67.8,65.7,30.05,NNE,22,0.0,0.0,93,0.00,CLR,,0.00,WeatherDisplay:10.37,2013-08-09 07:53:00,
2013-08-09 03:58:00,67.8,65.7,30.05,NNE,22,0.0,0.0,93,0.00,CLR,,0.00,WeatherDisplay:10.37,2013-08-09 07:58:00,
2013-08-09 04:03:00,68.0,65.9,30.05,NNE,22,0.0,0.0,93,0.00,CLR,,0.00,WeatherDisplay:10.37,2013-08-09 08:03:00,
2013-08-09 04:08:00,68.2,66.4,30.05,NNE,22,0.0,0.0,94,0.00,CLR,,0.00,WeatherDisplay:10.37,2013-08-09 08:08:00,
2013-08-09 04:13:00,68.4,66.6,30.05,NNE,22,0.0,0.0,94,0.00,CLR,,0.00,WeatherDisplay:10.37,2013-08-09 08:13:00,
2013-08-09 04:18:00,68.5,66.7,30.05,NNE,22,0.0,0.0,94,0.00,CLR,,0.00,WeatherDisplay:10.37,2013-08-09 08:18:00,
2013-08-09 04:23:00,68.7,66.9,30.04,NNE,22,0.0,0.0,94,0.00,CLR,,0.00,WeatherDisplay:10.37,2013-08-09 08:23:00,
2013-08-09 04:28:00,68.7,66.9,30.05,NNE,22,0.0,0.0,94,0.00,CLR,,0.00,WeatherDisplay:10.37,2013-08-09 08:28:00,
2013-08-09 04:33:00,68.9,67.1,30.05,NNE,22,0.0,0.0,94,0.00,CLR,,0.00,WeatherDisplay:10.37,2013-08-09 08:33:00,
2013-08-09 04:38:00,69.1,67.3,30.05,NNE,22,0.0,0.0,94,0.00,CLR,,0.00,WeatherDisplay:10.37,2013-08-09 08:38:00,
2013-08-09 04:43:00,69.1,67.0,30.05,NNE,22,0.0,0.0,93,0.00,CLR,,0.00,WeatherDisplay:10.37,2013-08-09 08:43:00,
2013-08-09 04:48:00,69.3,67.5,30.05,NNE,22,0.0,0.0,94,0.00,CLR,,0.00,WeatherDisplay:10.37,2013-08-09 08:48:00,
2013-08-09 04:53:00,69.3,67.5,30.05,NNE,22,0.0,0.0,94,0.00,CLR,,0.00,WeatherDisplay:10.37,2013-08-09 08:53:00,
2013-08-09 04:58:00,69.3,67.5,30.05,NNE,22,0.0,0.0,94,0.00,CLR,,0.00,WeatherDisplay:10.37,2013-08-09 08:58:00,
2013-08-09 05:03:00,69.4,67.3,30.05,NNE,22,0.0,0.0,93,0.00,CLR,,0.00,WeatherDisplay:10.37,2013-08-09 09:03:00,
2013-08-09 05:08:00,69.4,67.3,30.06,NNE,22,0.0,0.0,93,0.00,CLR,,0.00,WeatherDisplay:10.37,2013-08-09 09:08:00,
2013-08-09 05:13:00,69.4,67.3,30.06,NNE,22,0.0,0.0,93,0.00,CLR,,0.00,WeatherDisplay:10.37,2013-08-09 09:13:00,
2013-08-09 05:18:00,69.4,67.3,30.06,NNE,22,0.0,0.0,93,0.00,CLR,,0.00,WeatherDisplay:10.37,2013-08-09 09:18:00,
2013-08-09 05:23:00,69.4,67.3,30.06,NNE,22,0.0,0.0,93,0.00,CLR,,0.00,WeatherDisplay:10.37,2013-08-09 09:23:00,
2013-08-09 05:28:00,69.4,67.3,30.06,NNE,22,0.0,0.0,93,0.00,CLR,,0.00,WeatherDisplay:10.37,2013-08-09 09:28:00,
2013-08-09 05:33:00,69.4,67.3,30.06,NNE,22,0.0,0.0,93,0.00,CLR,,0.00,WeatherDisplay:10.37,2013-08-09 09:33:00,
2013-08-09 05:38:00,69.3,67.1,30.06,NNE,22,0.0,0.0,93,0.00,CLR,,0.00,WeatherDisplay:10.37,2013-08-09 09:38:00,
2013-08-09 05:43:00,69.3,67.1,30.06,NNE,22,0.0,0.0,93,0.00,CLR,,0.00,WeatherDisplay:10.37,2013-08-09 09:43:00,
2013-08-09 05:48:00,69.1,67.0,30.06,NNE,22,0.0,0.0,93,0.00,CLR,,0.00,WeatherDisplay:10.37,2013-08-09 09:48:00,
2013-08-09 05:53:00,69.1,67.0,30.06,NNE,22,0.0,0.0,93,0.00,CLR,,0.00,WeatherDisplay:10.37,2013-08-09 09:53:00,
2013-08-09 05:58:00,69.1,67.0,30.06,NNE,22,0.0,0.0,93,0.00,CLR,,0.00,WeatherDisplay:10.37,2013-08-09 09:58:00,
2013-08-09 06:03:00,69.1,67.0,30.06,NNE,22,0.0,0.0,93,0.00,CLR,,0.00,WeatherDisplay:10.37,2013-08-09 10:03:00,
2013-08-09 06:08:00,69.1,67.0,30.06,NNE,22,0.0,0.0,93,0.00,CLR,,0.00,WeatherDisplay:10.37,2013-08-09 10:08:00,
2013-08-09 06:13:00,69.1,67.0,30.06,NNE,22,0.0,0.0,93,0.00,CLR,,0.00,WeatherDisplay:10.37,2013-08-09 10:13:00,
2013-08-09 06:18:00,68.9,66.8,30.07,NNE,22,0.0,0.0,93,0.00,CLR,,0.00,WeatherDisplay:10.37,2013-08-09 10:18:00,
2013-08-09 06:23:00,69.1,67.0,30.07,NNE,22,0.0,0.0,93,0.00,CLR,,0.00,WeatherDisplay:10.37,2013-08-09 10:23:00,
2013-08-09 06:28:00,68.9,66.8,30.07,NNE,22,0.0,0.0,93,0.00,CLR,,0.00,WeatherDisplay:10.37,2013-08-09 10:28:00,
2013-08-09 06:33:00,69.1,67.0,30.07,NNE,22,0.0,0.0,93,0.00,CLR,,0.00,WeatherDisplay:10.37,2013-08-09 10:33:00,
2013-08-09 06:38:00,69.1,67.0,30.07,NNE,22,0.0,0.0,93,0.00,CLR,,0.00,WeatherDisplay:10.37,2013-08-09 10:38:00,
2013-08-09 06:43:00,69.1,67.0,30.07,NNE,22,0.0,0.0,93,0.00,CLR,,0.00,WeatherDisplay:10.37,2013-08-09 10:43:00,
2013-08-09 06:48:00,69.1,67.0,30.07,NNE,22,0.0,0.0,93,0.00,CLR,,0.00,WeatherDisplay:10.37,2013-08-09 10:48:00,
2013-08-09 06:53:00,68.9,66.8,30.06,NNE,22,0.0,0.0,93,0.00,CLR,,0.00,WeatherDisplay:10.37,2013-08-09 10:53:00,
2013-08-09 06:58:00,68.9,66.8,30.06,NNE,22,0.0,0.0,93,0.00,CLR,,0.00,WeatherDisplay:10.37,2013-08-09 10:58:00,
2013-08-09 07:03:00,68.9,66.8,30.07,NNE,22,0.0,0.0,93,0.00,CLR,,0.00,WeatherDisplay:10.37,2013-08-09 11:03:00,
2013-08-09 07:08:00,68.9,66.8,30.07,NNE,22,0.0,0.0,93,0.00,CLR,,0.00,WeatherDisplay:10.37,2013-08-09 11:08:00,
2013-08-09 07:13:00,68.9,66.8,30.08,NNE,22,0.0,0.0,93,0.00,CLR,,0.00,WeatherDisplay:10.37,2013-08-09 11:13:00,
2013-08-09 07:18:00,68.7,66.6,30.08,NNE,22,0.0,0.0,93,0.00,CLR,,0.00,WeatherDisplay:10.37,2013-08-09 11:18:00,
2013-08-09 07:23:00,68.7,66.6,30.08,NNE,22,0.0,0.0,93,0.00,CLR,,0.00,WeatherDisplay:10.37,2013-08-09 11:23:00,
2013-08-09 07:28:00,68.9,66.8,30.08,NNE,22,0.0,0.0,93,0.00,CLR,,0.00,WeatherDisplay:10.37,2013-08-09 11:28:00,
2013-08-09 07:33:00,68.9,66.8,30.08,NNE,22,0.0,0.0,93,0.00,CLR,,0.00,WeatherDisplay:10.37,2013-08-09 11:33:00,
2013-08-09 07:38:00,68.9,66.8,30.08,NNE,22,0.0,0.0,93,0.00,CLR,,0.00,WeatherDisplay:10.37,2013-08-09 11:38:00,
2013-08-09 07:43:00,69.1,67.0,30.08,NNE,22,0.0,0.0,93,0.00,CLR,,0.00,WeatherDisplay:10.37,2013-08-09 11:43:00,
2013-08-09 07:48:00,69.1,67.0,30.08,NNE,22,0.0,0.0,93,0.00,CLR,,0.00,WeatherDisplay:10.37,2013-08-09 11:48:00,
2013-08-09 07:53:00,69.1,67.0,30.08,NNE,22,0.0,0.0,93,0.00,CLR,,0.00,WeatherDisplay:10.37,2013-08-09 11:53:00,
2013-08-09 07:58:00,69.3,67.1,30.08,NNE,22,0.0,0.0,93,0.00,CLR,,0.00,WeatherDisplay:10.37,2013-08-09 11:58:00,
2013-08-09 08:03:00,69.4,67.3,30.08,NNE,22,0.0,0.0,93,0.00,CLR,,0.00,WeatherDisplay:10.37,2013-08-09 12:03:00,
2013-08-09 08:08:00,69.4,67.3,30.08,NNE,22,0.0,0.0,93,0.00,CLR,,0.00,WeatherDisplay:10.37,2013-08-09 12:08:00,
2013-08-09 08:13:00,69.4,67.3,30.08,NNE,22,0.0,0.0,93,0.00,CLR,,0.00,WeatherDisplay:10.37,2013-08-09 12:13:00,
2013-08-09 08:18:00,69.6,67.5,30.08,NNE,22,0.0,0.0,93,0.00,CLR,,0.00,WeatherDisplay:10.37,2013-08-09 12:18:00,
2013-08-09 08:23:00,69.6,67.2,30.08,NNE,22,0.0,0.0,92,0.00,CLR,,0.00,WeatherDisplay:10.37,2013-08-09 12:23:00,
2013-08-09 08:28:00,69.8,67.4,30.08,NNE,22,0.0,0.0,92,0.00,CLR,,0.00,WeatherDisplay:10.37,2013-08-09 12:28:00,
2013-08-09 08:33:00,69.8,67.4,30.09,NNE,22,0.0,0.0,92,0.00,CLR,,0.00,WeatherDisplay:10.37,2013-08-09 12:33:00,
2013-08-09 08:38:00,70.0,67.5,30.09,NNE,22,0.0,0.0,92,0.00,CLR,,0.00,WeatherDisplay:10.37,2013-08-09 12:38:00,
2013-08-09 08:43:00,70.0,67.5,30.09,NNE,22,0.0,0.0,92,0.00,CLR,,0.00,WeatherDisplay:10.37,2013-08-09 12:43:00,
2013-08-09 08:48:00,70.2,67.7,30.09,NNE,22,0.0,0.0,92,0.00,CLR,,0.00,WeatherDisplay:10.37,2013-08-09 12:48:00,
2013-08-09 08:53:00,70.2,67.7,30.09,NNE,22,0.0,0.0,92,0.00,CLR,,0.00,WeatherDisplay:10.37,2013-08-09 12:53:00,
2013-08-09 08:58:00,70.3,67.9,30.09,NNE,22,0.0,0.0,92,0.00,CLR,,0.00,WeatherDisplay:10.37,2013-08-09 12:58:00,
2013-08-09 09:03:00,70.5,67.8,30.09,NNE,22,0.0,0.0,91,0.00,CLR,,0.00,WeatherDisplay:10.37,2013-08-09 13:03:00,
2013-08-09 09:08:00,70.7,67.9,30.09,NNE,22,0.0,0.0,91,0.00,CLR,,0.00,WeatherDisplay:10.37,2013-08-09 13:08:00,
2013-08-09 09:13:00,71.4,68.7,30.09,NNE,22,0.0,0.0,91,0.00,CLR,,0.00,WeatherDisplay:10.37,2013-08-09 13:13:00,
2013-08-09 09:18:00,71.8,68.7,30.09,NNE,22,0.0,0.0,90,0.00,CLR,,0.00,WeatherDisplay:10.37,2013-08-09 13:18:00,
2013-08-09 09:23:00,72.1,68.4,30.09,NNE,22,0.0,0.0,88,0.00,CLR,,0.00,WeatherDisplay:10.37,2013-08-09 13:23:00,
2013-08-09 09:28:00,72.3,68.6,30.09,NNE,22,0.0,0.0,88,0.00,CLR,,0.00,WeatherDisplay:10.37,2013-08-09 13:28:00,
2013-08-09 09:33:00,72.7,68.9,30.09,NNE,22,0.0,0.0,88,0.00,CLR,,0.00,WeatherDisplay:10.37,2013-08-09 13:33:00,
2013-08-09 09:38:00,72.9,68.4,30.09,NNE,22,0.0,0.0,86,0.00,CLR,,0.00,WeatherDisplay:10.37,2013-08-09 13:38:00,
2013-08-09 09:43:00,73.0,68.6,30.08,NNE,22,0.0,0.0,86,0.00,CLR,,0.00,WeatherDisplay:10.37,2013-08-09 13:43:00,
2013-08-09 09:48:00,73.0,68.6,30.09,NNE,22,0.0,0.0,86,0.00,CLR,,0.00,WeatherDisplay:10.37,2013-08-09 13:48:00,
2013-08-09 09:53:00,73.0,68.3,30.09,NNE,22,0.0,0.0,85,0.00,CLR,,0.00,WeatherDisplay:10.37,2013-08-09 13:53:00,
2013-08-09 09:58:00,73.2,68.4,30.09,NNE,22,0.0,0.0,85,0.00,CLR,,0.00,WeatherDisplay:10.37,2013-08-09 13:58:00,
2013-08-09 10:03:00,73.2,68.8,30.10,NNE,22,0.0,0.0,86,0.00,CLR,,0.00,WeatherDisplay:10.37,2013-08-09 14:03:00,
2013-08-09 10:08:00,73.4,68.6,30.10,NNE,22,0.0,0.0,85,0.00,CLR,,0.00,WeatherDisplay:10.37,2013-08-09 14:08:00,
2013-08-09 10:13:00,73.9,69.1,30.10,NNE,22,0.0,0.0,85,0.00,CLR,,0.00,WeatherDisplay:10.37,2013-08-09 14:13:00,
2013-08-09 10:18:00,73.9,68.8,30.09,NNE,22,0.0,0.0,84,0.00,CLR,,0.00,WeatherDisplay:10.37,2013-08-09 14:18:00,
2013-08-09 10:23:00,74.5,69.0,30.09,NNE,22,0.0,0.0,83,0.00,CLR,,0.00,WeatherDisplay:10.37,2013-08-09 14:23:00,
2013-08-09 10:28:00,75.0,69.5,30.10,NNE,22,0.0,0.0,83,0.00,CLR,,0.00,WeatherDisplay:10.37,2013-08-09 14:28:00,
2013-08-09 10:33:00,75.0,69.1,30.10,NNE,22,0.0,0.0,82,0.00,CLR,,0.00,WeatherDisplay:10.37,2013-08-09 14:33:00,
2013-08-09 10:38:00,75.0,69.1,30.10,NNE,22,0.0,0.0,82,0.00,CLR,,0.00,WeatherDisplay:10.37,2013-08-09 14:38:00,
2013-08-09 10:43:00,74.8,68.6,30.10,NNE,22,0.0,0.0,81,0.00,CLR,,0.00,WeatherDisplay:10.37,2013-08-09 14:43:00,
2013-08-09 10:48:00,74.5,68.6,30.10,NNE,22,0.0,0.0,82,0.00,CLR,,0.00,WeatherDisplay:10.37,2013-08-09 14:48:00,
2013-08-09 10:53:00,74.3,68.4,30.10,NNE,22,0.0,0.0,82,0.00,CLR,,0.00,WeatherDisplay:10.37,2013-08-09 14:53:00,
2013-08-09 10:58:00,73.9,68.4,30.10,NNE,22,0.0,0.0,83,0.00,CLR,,0.00,WeatherDisplay:10.37,2013-08-09 14:58:00,
2013-08-09 11:03:00,74.1,68.6,30.10,NNE,22,0.0,0.0,83,0.00,CLR,,0.00,WeatherDisplay:10.37,2013-08-09 15:03:00,
2013-08-09 11:08:00,74.1,68.6,30.10,NNE,22,0.0,0.0,83,0.00,CLR,,0.00,WeatherDisplay:10.37,2013-08-09 15:08:00,
2013-08-09 11:13:00,74.5,68.6,30.10,NNE,22,0.0,0.0,82,0.00,CLR,,0.00,WeatherDisplay:10.37,2013-08-09 15:13:00,
2013-08-09 11:18:00,75.4,69.5,30.10,NNE,22,0.0,0.0,82,0.00,CLR,,0.00,WeatherDisplay:10.37,2013-08-09 15:18:00,
2013-08-09 11:23:00,75.6,69.0,30.10,NNE,22,0.0,0.0,80,0.00,CLR,,0.00,WeatherDisplay:10.37,2013-08-09 15:23:00,
2013-08-09 11:28:00,75.7,69.5,30.10,NNE,22,0.0,0.0,81,0.00,CLR,,0.00,WeatherDisplay:10.37,2013-08-09 15:28:00,
2013-08-09 11:33:00,75.6,69.0,30.10,NNE,22,0.0,0.0,80,0.00,CLR,,0.00,WeatherDisplay:10.37,2013-08-09 15:33:00,
2013-08-09 11:38:00,75.4,68.8,30.10,NNE,22,0.0,0.0,80,0.00,CLR,,0.00,WeatherDisplay:10.37,2013-08-09 15:38:00,
2013-08-09 11:43:00,75.4,68.8,30.10,NNE,22,0.0,0.0,80,0.00,CLR,,0.00,WeatherDisplay:10.37,2013-08-09 15:43:00,
2013-08-09 11:48:00,75.0,68.8,30.10,NNE,22,0.0,0.0,81,0.00,CLR,,0.00,WeatherDisplay:10.37,2013-08-09 15:48:00,
2013-08-09 11:53:00,75.0,68.8,30.10,NNE,22,0.0,0.0,81,0.00,CLR,,0.00,WeatherDisplay:10.37,2013-08-09 15:53:00,
2013-08-09 11:59:00,75.2,69.0,30.10,NNE,22,0.0,0.0,81,0.00,CLR,,0.00,WeatherDisplay:10.37,2013-08-09 15:59:00,
2013-08-09 12:04:00,75.7,69.9,30.10,NNE,22,0.0,0.0,82,0.00,CLR,,0.00,WeatherDisplay:10.37,2013-08-09 16:04:00,
2013-08-09 12:09:00,76.3,70.0,30.10,NNE,22,0.0,0.0,81,0.00,CLR,,0.00,WeatherDisplay:10.37,2013-08-09 16:09:00,
2013-08-09 12:14:00,76.1,69.8,30.10,NNE,22,0.0,0.0,81,0.00,CLR,,0.00,WeatherDisplay:10.37,2013-08-09 16:14:00,
2013-08-09 12:19:00,75.9,69.3,30.10,NNE,22,0.0,0.0,80,0.00,CLR,,0.00,WeatherDisplay:10.37,2013-08-09 16:19:00,
2013-08-09 12:24:00,75.4,68.8,30.10,NNE,22,0.0,0.0,80,0.00,CLR,,0.00,WeatherDisplay:10.37,2013-08-09 16:24:00,
2013-08-09 12:29:00,75.0,68.8,30.10,NNE,22,0.0,0.0,81,0.00,CLR,,0.00,WeatherDisplay:10.37,2013-08-09 16:29:00,
2013-08-09 12:34:00,74.5,68.3,30.11,NNE,22,0.0,0.0,81,0.00,CLR,,0.00,WeatherDisplay:10.37,2013-08-09 16:34:00,
2013-08-09 12:39:00,74.1,68.3,30.11,NNE,22,0.0,0.0,82,0.00,CLR,,0.00,WeatherDisplay:10.37,2013-08-09 16:39:00,
2013-08-09 12:44:00,74.1,68.6,30.10,NNE,22,0.0,0.0,83,0.00,CLR,,0.00,WeatherDisplay:10.37,2013-08-09 16:44:00,
2013-08-09 12:49:00,74.1,68.6,30.11,NNE,22,0.0,0.0,83,0.00,CLR,,0.00,WeatherDisplay:10.37,2013-08-09 16:49:00,
2013-08-09 12:54:00,74.5,69.0,30.10,NNE,22,0.0,0.0,83,0.00,CLR,,0.00,WeatherDisplay:10.37,2013-08-09 16:54:00,
2013-08-09 12:59:00,75.0,69.5,30.10,NNE,22,0.0,0.0,83,0.00,CLR,,0.00,WeatherDisplay:10.37,2013-08-09 16:59:00,
2013-08-09 13:04:00,75.7,70.2,30.10,NNE,22,0.0,0.0,83,0.00,CLR,,0.00,WeatherDisplay:10.37,2013-08-09 17:04:00,
2013-08-09 13:09:00,75.9,70.0,30.09,NNE,22,0.0,0.0,82,0.00,CLR,,0.00,WeatherDisplay:10.37,2013-08-09 17:09:00,
2013-08-09 13:14:00,76.6,70.7,30.09,NNE,22,0.0,0.0,82,0.00,CLR,,0.00,WeatherDisplay:10.37,2013-08-09 17:14:00,
2013-08-09 13:19:00,76.8,70.5,30.09,NNE,22,0.0,0.0,81,0.00,CLR,,0.00,WeatherDisplay:10.37,2013-08-09 17:19:00,
2013-08-09 13:24:00,77.2,70.2,30.09,NNE,22,0.0,0.0,79,0.00,CLR,,0.00,WeatherDisplay:10.37,2013-08-09 17:24:00,
2013-08-09 13:29:00,76.8,70.2,30.09,NNE,22,0.0,0.0,80,0.00,CLR,,0.00,WeatherDisplay:10.37,2013-08-09 17:29:00,
2013-08-09 13:34:00,76.6,70.0,30.09,NNE,22,0.0,0.0,80,0.00,CLR,,0.00,WeatherDisplay:10.37,2013-08-09 17:34:00,
2013-08-09 13:39:00,76.5,69.8,30.09,NNE,22,0.0,0.0,80,0.00,CLR,,0.00,WeatherDisplay:10.37,2013-08-09 17:39:00,
2013-08-09 13:44:00,76.5,69.8,30.09,NNE,22,0.0,0.0,80,0.00,CLR,,0.00,WeatherDisplay:10.37,2013-08-09 17:44:00,
2013-08-09 13:49:00,76.6,70.0,30.09,NNE,22,0.0,0.0,80,0.00,CLR,,0.00,WeatherDisplay:10.37,2013-08-09 17:49:00,
2013-08-09 13:54:00,77.2,70.5,30.09,NNE,22,0.0,0.0,80,0.00,CLR,,0.00,WeatherDisplay:10.37,2013-08-09 17:54:00,
2013-08-09 13:59:00,77.7,70.7,30.09,NNE,22,0.0,0.0,79,0.00,CLR,,0.00,WeatherDisplay:10.37,2013-08-09 17:59:00,
2013-08-09 14:04:00,77.9,70.5,30.09,NNE,22,0.0,0.0,78,0.00,CLR,,0.00,WeatherDisplay:10.37,2013-08-09 18:04:00,
2013-08-09 14:09:00,77.9,70.5,30.08,NNE,22,0.0,0.0,78,0.00,CLR,,0.00,WeatherDisplay:10.37,2013-08-09 18:09:00,
2013-08-09 14:14:00,78.1,70.7,30.08,NNE,22,0.0,0.0,78,0.00,CLR,,0.00,WeatherDisplay:10.37,2013-08-09 18:14:00,
2013-08-09 14:19:00,78.1,70.3,30.08,NNE,22,0.0,0.0,77,0.00,CLR,,0.00,WeatherDisplay:10.37,2013-08-09 18:19:00,
2013-08-09 14:24:00,78.4,69.9,30.08,NNE,22,0.0,0.0,75,0.00,CLR,,0.00,WeatherDisplay:10.37,2013-08-09 18:24:00,
2013-08-09 14:29:00,79.0,70.4,30.08,NNE,22,0.0,0.0,75,0.00,CLR,,0.00,WeatherDisplay:10.37,2013-08-09 18:29:00,
2013-08-09 14:34:00,79.3,70.3,30.07,NNE,22,0.0,0.0,74,0.00,CLR,,0.00,WeatherDisplay:10.37,2013-08-09 18:34:00,
2013-08-09 14:39:00,79.7,70.7,30.07,NNE,22,0.0,0.0,74,0.00,CLR,,0.00,WeatherDisplay:10.37,2013-08-09 18:39:00,
2013-08-09 14:44:00,80.2,71.2,30.07,NNE,22,0.0,0.0,74,0.00,CLR,,0.00,WeatherDisplay:10.37,2013-08-09 18:44:00,
2013-08-09 14:49:00,80.8,71.7,30.07,NNE,22,0.0,0.0,74,0.00,CLR,,0.00,WeatherDisplay:10.37,2013-08-09 18:49:00,
2013-08-09 14:54:00,81.1,71.7,30.07,NNE,22,0.0,0.0,73,0.00,CLR,,0.00,WeatherDisplay:10.37,2013-08-09 18:54:00,
2013-08-09 14:59:00,81.3,72.2,30.07,NNE,22,0.0,0.0,74,0.00,CLR,,0.00,WeatherDisplay:10.37,2013-08-09 18:59:00,
2013-08-09 15:04:00,81.5,72.0,30.07,NNE,22,0.0,0.0,73,0.00,CLR,,0.00,WeatherDisplay:10.37,2013-08-09 19:04:00,
2013-08-09 15:09:00,81.7,71.4,30.07,NNE,22,0.0,0.0,71,0.00,CLR,,0.00,WeatherDisplay:10.37,2013-08-09 19:09:00,
2013-08-09 15:14:00,81.7,71.4,30.07,NNE,22,0.0,0.0,71,0.00,CLR,,0.00,WeatherDisplay:10.37,2013-08-09 19:14:00,
2013-08-09 15:19:00,81.7,71.8,30.07,NNE,22,0.0,0.0,72,0.00,CLR,,0.00,WeatherDisplay:10.37,2013-08-09 19:19:00,
2013-08-09 15:24:00,82.0,71.7,30.07,NNE,22,0.0,0.0,71,0.00,CLR,,0.00,WeatherDisplay:10.37,2013-08-09 19:24:00,
2013-08-09 15:29:00,82.2,71.9,30.07,NNE,22,0.0,0.0,71,0.00,CLR,,0.00,WeatherDisplay:10.37,2013-08-09 19:29:00,
2013-08-09 15:34:00,82.0,71.7,30.07,NNE,22,0.0,0.0,71,0.00,CLR,,0.00,WeatherDisplay:10.37,2013-08-09 19:34:00,
2013-08-09 15:39:00,81.1,71.3,30.07,NNE,22,0.0,0.0,72,0.00,CLR,,0.00,WeatherDisplay:10.37,2013-08-09 19:39:00,
2013-08-09 15:44:00,80.6,70.7,30.07,NNE,22,0.0,0.0,72,0.00,CLR,,0.00,WeatherDisplay:10.37,2013-08-09 19:44:00,
2013-08-09 15:49:00,80.2,70.8,30.07,NNE,22,0.0,0.0,73,0.00,CLR,,0.00,WeatherDisplay:10.37,2013-08-09 19:49:00,
2013-08-09 15:54:00,80.4,71.8,30.07,NNE,22,0.0,0.0,75,0.00,CLR,,0.00,WeatherDisplay:10.37,2013-08-09 19:54:00,
2013-08-09 15:59:00,80.8,71.7,30.06,NNE,22,0.0,0.0,74,0.00,CLR,,0.00,WeatherDisplay:10.37,2013-08-09 19:59:00,
2013-08-09 16:04:00,81.0,71.5,30.06,NNE,22,0.0,0.0,73,0.00,CLR,,0.00,WeatherDisplay:10.37,2013-08-09 20:04:00,
2013-08-09 16:09:00,81.1,71.7,30.06,NNE,22,0.0,0.0,73,0.00,CLR,,0.00,WeatherDisplay:10.37,2013-08-09 20:09:00,
2013-08-09 16:14:00,81.1,71.3,30.06,NNE,22,0.0,0.0,72,0.00,CLR,,0.00,WeatherDisplay:10.37,2013-08-09 20:14:00,
2013-08-09 16:19:00,81.0,71.5,30.06,NNE,22,0.0,0.0,73,0.00,CLR,,0.00,WeatherDisplay:10.37,2013-08-09 20:19:00,
2013-08-09 16:24:00,81.0,71.5,30.06,NNE,22,0.0,0.0,73,0.00,CLR,,0.00,WeatherDisplay:10.37,2013-08-09 20:24:00,
2013-08-09 16:29:00,81.3,71.4,30.06,NNE,22,0.0,0.0,72,0.00,CLR,,0.00,WeatherDisplay:10.37,2013-08-09 20:29:00,
2013-08-09 16:34:00,81.3,71.0,30.06,NNE,22,0.0,0.0,71,0.00,CLR,,0.00,WeatherDisplay:10.37,2013-08-09 20:34:00,
2013-08-09 16:39:00,80.8,70.5,30.06,NNE,22,0.0,0.0,71,0.00,CLR,,0.00,WeatherDisplay:10.37,2013-08-09 20:39:00,
2013-08-09 16:44:00,80.4,71.0,30.06,NNE,22,0.0,0.0,73,0.00,CLR,,0.00,WeatherDisplay:10.37,2013-08-09 20:44:00,
2013-08-09 16:49:00,80.2,70.8,30.06,NNE,22,0.0,0.0,73,0.00,CLR,,0.00,WeatherDisplay:10.37,2013-08-09 20:49:00,
2013-08-09 16:54:00,80.2,71.2,30.06,NNE,22,0.0,0.0,74,0.00,CLR,,0.00,WeatherDisplay:10.37,2013-08-09 20:54:00,
2013-08-09 16:59:00,80.2,70.8,30.05,NNE,22,0.0,0.0,73,0.00,CLR,,0.00,WeatherDisplay:10.37,2013-08-09 20:59:00,
2013-08-09 17:04:00,80.2,70.4,30.05,NNE,22,0.0,0.0,72,0.00,CLR,,0.00,WeatherDisplay:10.37,2013-08-09 21:04:00,
2013-08-09 17:09:00,80.8,70.9,30.05,NNE,22,0.0,0.0,72,0.00,CLR,,0.00,WeatherDisplay:10.37,2013-08-09 21:09:00,
2013-08-09 17:14:00,81.0,71.5,30.06,NNE,22,0.0,0.0,73,0.00,CLR,,0.00,WeatherDisplay:10.37,2013-08-09 21:14:00,
2013-08-09 17:19:00,80.8,70.9,30.06,NNE,22,0.0,0.0,72,0.00,CLR,,0.00,WeatherDisplay:10.37,2013-08-09 21:19:00,
2013-08-09 17:24:00,80.8,71.3,30.06,NNE,22,0.0,0.0,73,0.00,CLR,,0.00,WeatherDisplay:10.37,2013-08-09 21:24:00,
2013-08-09 17:29:00,81.0,71.5,30.06,NNE,22,0.0,0.0,73,0.00,CLR,,0.00,WeatherDisplay:10.37,2013-08-09 21:29:00,
2013-08-09 17:34:00,81.3,72.2,30.06,NNE,22,0.0,0.0,74,0.00,CLR,,0.00,WeatherDisplay:10.37,2013-08-09 21:34:00,
2013-08-09 17:39:00,81.7,71.8,30.06,NNE,22,0.0,0.0,72,0.00,CLR,,0.00,WeatherDisplay:10.37,2013-08-09 21:39:00,
2013-08-09 17:40:00,81.7,71.8,30.06,NNE,22,0.0,0.0,72,0.00,CLR,,0.00,WeatherDisplay:10.37,2013-08-09 21:40:00,
2013-08-09 17:45:00,81.7,70.5,30.06,NNE,22,0.0,0.0,69,0.00,CLR,,0.00,WeatherDisplay:10.37,2013-08-09 21:45:00,
2013-08-09 17:50:00,81.5,71.2,30.06,NNE,22,0.0,0.0,71,0.00,CLR,,0.00,WeatherDisplay:10.37,2013-08-09 21:50:00,
2013-08-09 17:55:00,81.7,71.4,30.06,NNE,22,0.0,0.0,71,0.00,CLR,,0.00,WeatherDisplay:10.37,2013-08-09 21:55:00,
2013-08-09 18:00:00,81.9,71.9,30.05,NNE,22,0.0,0.0,72,0.00,CLR,,0.00,WeatherDisplay:10.37,2013-08-09 22:00:00,
2013-08-09 18:05:00,82.2,71.5,30.05,NNE,22,0.0,0.0,70,0.00,CLR,,0.00,WeatherDisplay:10.37,2013-08-09 22:05:00,
2013-08-09 18:10:00,82.2,71.0,30.05,NNE,22,0.0,0.0,69,0.00,CLR,,0.00,WeatherDisplay:10.37,2013-08-09 22:10:00,
2013-08-09 18:15:00,82.0,70.9,30.05,NNE,22,0.0,0.0,69,0.00,CLR,,0.00,WeatherDisplay:10.37,2013-08-09 22:15:00,
2013-08-09 18:20:00,81.5,70.8,30.05,NNE,22,0.0,0.0,70,0.00,CLR,,0.00,WeatherDisplay:10.37,2013-08-09 22:20:00,
2013-08-09 18:25:00,81.3,70.6,30.06,NNE,22,0.0,0.0,70,0.00,CLR,,0.00,WeatherDisplay:10.37,2013-08-09 22:25:00,
2013-08-09 18:30:00,81.3,70.6,30.06,NNE,22,0.0,0.0,70,0.00,CLR,,0.00,WeatherDisplay:10.37,2013-08-09 22:30:00,
2013-08-09 18:35:00,81.1,70.8,30.05,NNE,22,0.0,0.0,71,0.00,CLR,,0.00,WeatherDisplay:10.37,2013-08-09 22:35:00,
2013-08-09 18:40:00,81.0,70.7,30.06,NNE,22,0.0,0.0,71,0.00,CLR,,0.00,WeatherDisplay:10.37,2013-08-09 22:40:00,
2013-08-09 18:45:00,81.1,70.8,30.06,NNE,22,0.0,0.0,71,0.00,CLR,,0.00,WeatherDisplay:10.37,2013-08-09 22:45:00,
2013-08-09 18:50:00,81.1,70.8,30.06,NNE,22,0.0,0.0,71,0.00,CLR,,0.00,WeatherDisplay:10.37,2013-08-09 22:50:00,
2013-08-09 18:55:00,80.8,70.5,30.06,NNE,22,0.0,0.0,71,0.00,CLR,,0.00,WeatherDisplay:10.37,2013-08-09 22:55:00,
2013-08-09 19:00:00,80.4,70.6,30.06,NNE,22,0.0,0.0,72,0.00,CLR,,0.00,WeatherDisplay:10.37,2013-08-09 23:00:00,
2013-08-09 19:05:00,80.1,70.2,30.06,NNE,22,0.0,0.0,72,0.00,CLR,,0.00,WeatherDisplay:10.37,2013-08-09 23:05:00,
2013-08-09 19:10:00,80.1,70.2,30.06,NNE,22,0.0,0.0,72,0.00,CLR,,0.00,WeatherDisplay:10.37,2013-08-09 23:10:00,
2013-08-09 19:15:00,79.5,70.1,30.06,NNE,22,0.0,0.0,73,0.00,CLR,,0.00,WeatherDisplay:10.37,2013-08-09 23:15:00,
2013-08-09 19:20:00,79.3,70.7,30.06,NNE,22,0.0,0.0,75,0.00,CLR,,0.00,WeatherDisplay:10.37,2013-08-09 23:20:00,
2013-08-09 19:25:00,79.2,70.5,30.06,NNE,22,0.0,0.0,75,0.00,CLR,,0.00,WeatherDisplay:10.37,2013-08-09 23:25:00,
2013-08-09 19:30:00,78.6,70.4,30.06,NNE,22,0.0,0.0,76,0.00,CLR,,0.00,WeatherDisplay:10.37,2013-08-09 23:30:00,
2013-08-09 19:35:00,78.6,70.8,30.06,NNE,22,0.0,0.0,77,0.00,CLR,,0.00,WeatherDisplay:10.37,2013-08-09 23:35:00,
2013-08-09 19:40:00,78.4,71.0,30.06,NNE,22,0.0,0.0,78,0.00,CLR,,0.00,WeatherDisplay:10.37,2013-08-09 23:40:00,
2013-08-09 19:45:00,78.4,71.0,30.06,NNE,22,0.0,0.0,78,0.00,CLR,,0.00,WeatherDisplay:10.37,2013-08-09 23:45:00,
2013-08-09 19:50:00,78.1,70.7,30.06,NNE,22,0.0,0.0,78,0.00,CLR,,0.00,WeatherDisplay:10.37,2013-08-09 23:50:00,
2013-08-09 19:55:00,77.9,70.5,30.07,NNE,22,0.0,0.0,78,0.00,CLR,,0.00,WeatherDisplay:10.37,2013-08-09 23:55:00,
2013-08-09 20:00:00,77.5,70.5,30.07,NNE,22,0.0,0.0,79,0.00,CLR,,0.00,WeatherDisplay:10.37,2013-08-10 00:00:00,
2013-08-09 20:05:00,77.4,70.3,30.06,NNE,22,0.0,0.0,79,0.00,CLR,,0.00,WeatherDisplay:10.37,2013-08-10 00:05:00,
2013-08-09 20:10:00,77.2,70.5,30.07,NNE,22,0.0,0.0,80,0.00,CLR,,0.00,WeatherDisplay:10.37,2013-08-10 00:10:00,
2013-08-09 20:15:00,76.8,70.2,30.08,NNE,22,0.0,0.0,80,0.00,CLR,,0.00,WeatherDisplay:10.37,2013-08-10 00:15:00,
2013-08-09 20:20:00,76.6,70.0,30.08,NNE,22,0.0,0.0,80,0.00,CLR,,0.00,WeatherDisplay:10.37,2013-08-10 00:20:00,
2013-08-09 20:25:00,76.3,70.0,30.08,NNE,22,0.0,0.0,81,0.00,CLR,,0.00,WeatherDisplay:10.37,2013-08-10 00:25:00,
2013-08-09 20:30:00,75.9,70.0,30.08,NNE,22,0.0,0.0,82,0.00,CLR,,0.00,WeatherDisplay:10.37,2013-08-10 00:30:00,
2013-08-09 20:35:00,75.7,69.9,30.08,NNE,22,0.0,0.0,82,0.00,CLR,,0.00,WeatherDisplay:10.37,2013-08-10 00:35:00,
2013-08-09 20:40:00,75.6,69.7,30.08,NNE,22,0.0,0.0,82,0.00,CLR,,0.00,WeatherDisplay:10.37,2013-08-10 00:40:00,
2013-08-09 20:45:00,75.4,69.5,30.08,NNE,22,0.0,0.0,82,0.00,CLR,,0.00,WeatherDisplay:10.37,2013-08-10 00:45:00,
2013-08-09 20:50:00,75.0,69.5,30.08,NNE,22,0.0,0.0,83,0.00,CLR,,0.00,WeatherDisplay:10.37,2013-08-10 00:50:00,
2013-08-09 20:55:00,74.8,69.3,30.08,NNE,22,0.0,0.0,83,0.00,CLR,,0.00,WeatherDisplay:10.37,2013-08-10 00:55:00,
2013-08-09 21:00:00,74.5,69.0,30.08,NNE,22,0.0,0.0,83,0.00,CLR,,0.00,WeatherDisplay:10.37,2013-08-10 01:00:00,
2013-08-09 21:05:00,74.5,69.3,30.09,NNE,22,0.0,0.0,84,0.00,CLR,,0.00,WeatherDisplay:10.37,2013-08-10 01:05:00,
2013-08-09 21:10:00,74.3,69.1,30.08,NNE,22,0.0,0.0,84,0.00,CLR,,0.00,WeatherDisplay:10.37,2013-08-10 01:10:00,
2013-08-09 21:15:00,74.1,69.3,30.08,NNE,22,0.0,0.0,85,0.00,CLR,,0.00,WeatherDisplay:10.37,2013-08-10 01:15:00,
2013-08-09 21:20:00,74.1,69.3,30.09,NNE,22,0.0,0.0,85,0.00,CLR,,0.00,WeatherDisplay:10.37,2013-08-10 01:20:00,
2013-08-09 21:25:00,73.9,69.1,30.09,NNE,22,0.0,0.0,85,0.00,CLR,,0.00,WeatherDisplay:10.37,2013-08-10 01:25:00,
2013-08-09 21:30:00,73.9,69.1,30.09,NNE,22,0.0,0.0,85,0.00,CLR,,0.00,WeatherDisplay:10.37,2013-08-10 01:30:00,
2013-08-09 21:35:00,73.9,69.1,30.09,NNE,22,0.0,0.0,85,0.00,CLR,,0.00,WeatherDisplay:10.37,2013-08-10 01:35:00,
2013-08-09 21:40:00,73.8,69.3,30.10,NNE,22,0.0,0.0,86,0.00,CLR,,0.00,WeatherDisplay:10.37,2013-08-10 01:40:00,
2013-08-09 21:45:00,73.4,69.0,30.10,NNE,22,0.0,0.0,86,0.00,CLR,,0.00,WeatherDisplay:10.37,2013-08-10 01:45:00,
2013-08-09 21:50:00,73.2,68.8,30.10,NNE,22,0.0,0.0,86,0.00,CLR,,0.00,WeatherDisplay:10.37,2013-08-10 01:50:00,
2013-08-09 21:55:00,73.2,68.8,30.10,NNE,22,0.0,0.0,86,0.00,CLR,,0.00,WeatherDisplay:10.37,2013-08-10 01:55:00,
2013-08-09 22:00:00,72.0,67.9,30.10,NNE,22,0.0,0.0,87,0.00,CLR,,0.00,WeatherDisplay:10.37,2013-08-10 02:00:00,
2013-08-09 22:05:00,71.8,68.0,30.10,NNE,22,0.0,0.0,88,0.00,CLR,,0.00,WeatherDisplay:10.37,2013-08-10 02:05:00,
2013-08-09 22:10:00,71.4,67.7,30.09,NNE,22,0.0,0.0,88,0.00,CLR,,0.00,WeatherDisplay:10.37,2013-08-10 02:10:00,
2013-08-09 22:15:00,71.2,67.8,30.10,NNE,22,0.0,0.0,89,0.00,CLR,,0.00,WeatherDisplay:10.37,2013-08-10 02:15:00,
2013-08-09 22:20:00,71.2,67.8,30.10,NNE,22,0.0,0.0,89,0.00,CLR,,0.00,WeatherDisplay:10.37,2013-08-10 02:20:00,
2013-08-09 22:25:00,71.1,67.7,30.10,NNE,22,0.0,0.0,89,0.00,CLR,,0.00,WeatherDisplay:10.37,2013-08-10 02:25:00,
2013-08-09 22:30:00,70.9,67.5,30.10,NNE,22,0.0,0.0,89,0.00,CLR,,0.00,WeatherDisplay:10.37,2013-08-10 02:30:00,
2013-08-09 22:35:00,70.7,67.6,30.11,NNE,22,0.0,0.0,90,0.00,CLR,,0.00,WeatherDisplay:10.37,2013-08-10 02:35:00,
2013-08-09 22:40:00,70.7,67.6,30.11,NNE,22,0.0,0.0,90,0.00,CLR,,0.00,WeatherDisplay:10.37,2013-08-10 02:40:00,
2013-08-09 22:45:00,70.5,67.4,30.12,NNE,22,0.0,0.0,90,0.00,CLR,,0.00,WeatherDisplay:10.37,2013-08-10 02:45:00,
2013-08-09 22:50:00,70.5,67.4,30.12,NNE,22,0.0,0.0,90,0.00,CLR,,0.00,WeatherDisplay:10.37,2013-08-10 02:50:00,
2013-08-09 22:55:00,70.5,67.4,30.12,NNE,22,0.0,0.0,90,0.00,CLR,,0.00,WeatherDisplay:10.37,2013-08-10 02:55:00,
2013-08-09 23:00:00,70.3,67.3,30.12,NNE,22,0.0,0.0,90,0.00,CLR,,0.00,WeatherDisplay:10.37,2013-08-10 03:00:00,
2013-08-09 23:05:00,70.3,67.6,30.12,NNE,22,0.0,0.0,91,0.00,CLR,,0.00,WeatherDisplay:10.37,2013-08-10 03:05:00,
2013-08-09 23:10:00,70.2,67.4,30.12,NNE,22,0.0,0.0,91,0.00,CLR,,0.00,WeatherDisplay:10.37,2013-08-10 03:10:00,
2013-08-09 23:15:00,70.2,67.4,30.12,NNE,22,0.0,0.0,91,0.00,CLR,,0.00,WeatherDisplay:10.37,2013-08-10 03:15:00,
2013-08-09 23:20:00,70.0,67.2,30.12,NNE,22,0.0,0.0,91,0.00,CLR,,0.00,WeatherDisplay:10.37,2013-08-10 03:20:00,
2013-08-09 23:25:00,70.0,67.2,30.12,NNE,22,0.0,0.0,91,0.00,CLR,,0.00,WeatherDisplay:10.37,2013-08-10 03:25:00,
2013-08-09 23:30:00,70.0,67.2,30.12,NNE,22,0.0,0.0,91,0.00,CLR,,0.00,WeatherDisplay:10.37,2013-08-10 03:30:00,
2013-08-09 23:35:00,70.0,67.2,30.12,NNE,22,0.0,0.0,91,0.00,CLR,,0.00,WeatherDisplay:10.37,2013-08-10 03:35:00,
2013-08-09 23:40:00,69.8,67.1,30.13,NNE,22,0.0,0.0,91,0.00,CLR,,0.00,WeatherDisplay:10.37,2013-08-10 03:40:00,
2013-08-09 23:45:00,69.8,67.4,30.12,NNE,22,0.0,0.0,92,0.00,CLR,,0.00,WeatherDisplay:10.37,2013-08-10 03:45:00,
2013-08-09 23:50:00,69.8,67.4,30.13,NNE,22,0.0,0.0,92,0.00,CLR,,0.00,WeatherDisplay:10.37,2013-08-10 03:50:00,
2013-08-09 23:55:00,69.8,67.4,30.12,NNE,22,0.0,0.0,92,0.00,CLR,,0.00,WeatherDisplay:10.37,2013-08-10 03:55:00,